sat.trackr.live / text

‹ back to catalog

CENTISPACE-1 S9

NORAD 62578 · 2025-007D

PAYLOAD ACTIVE UNKNOWN

§ Identity

Operator
Country
PRC
Launch date
2025-01-13
Launch site
YSLA
Launch vehicle
Mass (kg)
RCS (m²)

External: N2YO · Heavens-Above · Gunter

§ Orbital elements

Epoch: 2026-09-22T18:38:58.092000Z

Period
104.30 min
Inclination
54.9832°
Eccentricity
0.0009426
Mean motion
13.80623127 rev/d
Perigee alt
954.8 km
Apogee alt
968.6 km
Semi-major
7,339.8 km
B*
6.6554e-5
RAAN
311.0286°
Arg perigee
266.8033°
Mean anomaly
93.1845°
Rev number
8,819

§ Raw data

CENTISPACE-1 S91 62578U 25007D   26265.77706125 -.00000070  00000+0  66554-4 0  99952 62578  54.9832 311.0286 0009426 266.8033  93.1845 13.80623127 88190

JSON: /api/v1/satellites/62578 · /tle

For live sub-satellite position, see the globe view (requires WebGL).

§ Visibility from observer

Set your observer location to see the next 7 days of passes ≥ 10°. The values pass through the URL so the page stays shareable.

No JS? Fill the form by hand. The geolocation button needs JavaScript.

§ Radio — SatNOGS DB

ModeDescriptionDownlinkUplink
BPSK S-band telemetry 2.225 GHz
BPSK S-band telemetry 2.245 GHz

2 transmitters · refreshed weekly from db.satnogs.org